Weather in Cherlakskoye

Russia / Omsk Oblast     53°46′41″N   74°30′36″E
temp.,
°C
wind,
m/s
gust,
m/s
humid.,
%
clouds,
%
prec.,
mm/h
press.,
hPa
HPBL,
m
31 july, sat
sat3100:00+18s5133971 0.0 1013222
03:00+17ssw61240100 0.0 1012219
06:00+17ssw61438100 0.0 1011298
09:00+19w61147100 0.0 1012767
12:00+18sw81465100 0.5 1011664
15:00+23ssw810484 0.0 1010960
18:00+26s573832 0.0 1008850
21:00+21nw49590 0.0 1009128
1 august, sun
sun100:00+19nnw33715 0.0 101026
03:00+18nw226899 0.0 101019
06:00+18wnw3377100 0.0 101139
09:00+22nw3463100 0.0 1012345
12:00+25nw3451100 0.0 10111072
15:00+28wnw344347 0.0 10101777
18:00+28nw234022 0.0 10091627
21:00+24se22525 0.0 100811
2 august, mon
mon200:00+22ssw4558100 0.1 100878
03:00+20nw4977100 0.0 1008321
06:00+19wsw38884 0.0 1008211
09:00+23nw47680 0.0 1008608
12:00+27nw68460 0.0 10082032
15:00+28nw81036100 0.0 10082821
18:00+27wnw883817 0.0 10082301
21:00+24wnw51145100 0.0 1009421
3 august, tue
tue300:00+21nw3558100 0.0 101088
03:00+18nw48670 0.0 1010173
06:00+17nw37742 0.0 1011130
09:00+22nw695587 0.0 1012605
12:00+25nnw684292 0.0 10122108
15:00+27nw683670 0.0 10122555
18:00+25nnw6840100 0.0 10121697
21:00+22nnw2250100 0.0 101332
4 august, wed
wed400:00+22nw1248100 0.0 101214
03:00+21w115035 0.0 101212
06:00+19nnw115694 0.0 101213
09:00+22nne1151100 0.0 1012208
12:00+26n34405 0.0 10121953
15:00+26n563790 0.0 10111760
18:00+27nw573482 0.0 10112498
21:00+23n484610 0.0 1011239